Regional Weather Roundup
Issued by NWS Memphis, TN

Home | Current Version | Previous Version | Text Only | Print | Product List | Glossary On
Versions: 1 2 3 4 5 6 7 8 9 10 11 12 13 14 15 16 17 18 19 20 21 22 23 24 25 26 27 28 29 30 31 32 33 34 35 36 37 38 39 40 41 42 43 44 45 46 47 48 49 50
000
ASUS44 KMEG 280810
RWRMEG
MEMPHIS CWA HOURLY WEATHER ROUNDUP
NATIONAL WEATHER SERVICE MEMPHIS TN
300 AM CDT WED JUN 28 2017

...WEST TENNESSEE...

CITY           SKY/WX    TMP DP  RH WIND       PRES   REMARKS
MEMPHIS INTL   PTCLDY    73  63  70 SE8       30.03F
NWS MEMPHIS      N/A     69 N/A N/A MISG        N/A
JACKSON        CLEAR     63  62  97 CALM      30.06F
COVINGTON      CLEAR     66  64  94 CALM      30.05S
SOMERVILLE     CLEAR     66  63  88 CALM      30.04S
BOLIVAR        CLEAR     63  61  94 CALM      30.06S
LEXINGTON      CLEAR     57  57 100 CALM      30.07S FOG
SELMER         CLEAR     64  61  88 SE3       30.06F
SAVANNAH       CLEAR     61  59  94 CALM      30.06F
UNION CITY     CLEAR     63  59  88 CALM      30.05F
HUNTINGDON     PTCLDY    61  59  94 E3        30.06S


...EASTERN ARKANSAS...

CITY           SKY/WX    TMP DP  RH WIND       PRES   REMARKS
JONESBORO      CLEAR     66  65  96 E3        30.03F
WEST MEMPHIS   CLEAR     69  65  86 SE5       30.02F
BATESVILLE     CLEAR     64  61  88 CALM      30.03F
WALNUT RIDGE   CLEAR     68  63  83 SE7       30.03S
BLYTHEVILLE    CLEAR     69  65  86 CALM      30.04F
SEARCY         CLEAR     66  66 100 CALM      30.04F
STUTTGART      MOCLDY    72  57  60 E3        30.03S
PINE BLUFF     CLEAR     67  66  97 CALM      30.01F
MONTICELLO     PTCLDY    68  65  90 CALM      30.01F


...NORTH MISSISSIPPI...

CITY           SKY/WX    TMP DP  RH WIND       PRES   REMARKS
TUPELO         MOCLDY    68  63  84 CALM      30.06S
OXFORD         MOCLDY    66  63  88 SE6       30.06F
BATESVILLE     PTCLDY    65  64  96 CALM      30.04F FOG
TUNICA           N/A     68  64  88 SE6       30.03F
CORINTH        FOG       64  63  94 CALM      30.07S VSB 1/2
GREENWOOD      PTCLDY    70  65  84 VRB3      30.02S
COLUMBUS       CLEAR     66  64  91 CALM      30.04S
STARKVILLE     CLEAR     68  63  83 CALM      30.05F
GOLDEN TRIANGL CLEAR     70  59  68 E5        30.01F


...SOUTHEAST MISSOURI...

CITY           SKY/WX    TMP DP  RH WIND       PRES   REMARKS
MALDEN         CLEAR     70  63  78 CALM      30.06S
WEST PLAINS    CLEAR     66  63  90 S9        30.03F
POPLAR BLUFF   PTCLDY    64  64 100 CALM      30.03F
CAPE GIRARDEAU CLEAR     62  58  86 CALM      30.05S


...NORTHWEST ALABAMA...

CITY           SKY/WX    TMP DP  RH WIND       PRES   REMARKS
MUSCLE SHOALS  CLEAR     63  60  90 CALM      30.09F


...MIDDLE TENNESSEE...

CITY           SKY/WX    TMP DP  RH WIND       PRES   REMARKS
NASHVILLE      CLEAR     61  58  90 CALM      30.11S
CLARKSVILLE    CLEAR     57  53  86 CALM      30.09S
COLUMBIA       CLEAR     59  59 100 CALM      30.08S


...WESTERN KENTUCKY...

CITY           SKY/WX    TMP DP  RH WIND       PRES   REMARKS
PADUCAH        CLEAR     64  55  72 SE7       30.06S
FORT CAMPBELL  CLEAR     62  55  79 E3        30.09R


...CENTRAL ARKANSAS...

CITY           SKY/WX    TMP DP  RH WIND       PRES   REMARKS
LITTLE ROCK    CLEAR     67  67 100 CALM      30.02S


SKY/WX REPORTED AS FAIR MEANS FEW OR NO CLOUDS BELOW
12 THOUSAND FEET.




USA.gov is the U.S. government's official web portal to all federal, state and local government web resources and services.